This is the latest recevied weather packets stored in our database for station/object N1ICS-1. If no packets are shown the sender has not sent any weather packets the latest 10 day(s).
| Time | Temp. | Humidity | Pressure | Rain* | Wind** | Luminosity | Snow |
|---|---|---|---|---|---|---|---|
| 1778067902 | 6.67° C | 98% | 1012.8 hPa | 0 mm | - | 73 W/m² | - |
| 1778067602 | 6.67° C | 98% | 1012.8 hPa | 0 mm | - | 68 W/m² | - |
| 1778067302 | 6.67° C | 98% | 1012.7 hPa | 0 mm | - | 80 W/m² | - |
| 1778067002 | 6.67° C | 99% | 1012.3 hPa | 0 mm | - | 84 W/m² | - |
| 1778066702 | 6.67° C | 99% | 1012.1 hPa | 0 mm | - | 71 W/m² | - |
| 1778066402 | 6.11° C | 99% | 1012.3 hPa | 0 mm | - | 48 W/m² | - |
| 1778066102 | 6.11° C | 99% | 1012.4 hPa | 0 mm | - | 29 W/m² | - |
| 1778065802 | 6.11° C | 99% | 1012 hPa | 0 mm | - | 23 W/m² | - |
| 1778065502 | 6.11° C | 99% | 1011.9 hPa | 0 mm | - | 18 W/m² | - |
| 1778065203 | 6.67° C | 99% | 1012.2 hPa | 0 mm | - | 17 W/m² | - |
| 1778064902 | 6.11° C | 98% | 1012 hPa | 0 mm | - | 12 W/m² | - |
| 1778064602 | 6.67° C | 98% | 1011.8 hPa | 0 mm | - | 10 W/m² | - |
| 1778064302 | 6.11° C | 98% | 1012 hPa | 0 mm | - | 9 W/m² | - |
| 1778064002 | 6.11° C | 98% | 1012.2 hPa | 0 mm | - | 6 W/m² | - |
| 1778063702 | 6.11° C | 98% | 1012 hPa | 0 mm | - | 3 W/m² | - |
| 1778063403 | 6.11° C | 98% | 1011.9 hPa | 0 mm | - | 2 W/m² | - |
| 1778063102 | 6.11° C | 98% | 1012 hPa | 0 mm | - | 1 W/m² | - |
| 1778062801 | 6.11° C | 98% | 1011.7 hPa | 0 mm | - | 0 W/m² | - |
| 1778062502 | 6.11° C | 98% | 1011.7 hPa | 0 mm | - | 0 W/m² | - |
| 1778062203 | 6.11° C | 98% | 1011.3 hPa | 0 mm | - | 0 W/m² | - |
| 1778061902 | 6.11° C | 99% | 1011.7 hPa | 0 mm | - | 0 W/m² | - |
| 1778061603 | 6.11° C | 98% | 1011.5 hPa | 0 mm | - | 0 W/m² | - |
| 1778061302 | 6.11° C | 98% | 1011.4 hPa | 0 mm | - | 0 W/m² | - |
| 1778061002 | 6.11° C | 98% | 1011.5 hPa | 0 mm | - | 0 W/m² | - |
| 1778060702 | 6.11° C | 98% | 1011.4 hPa | 0 mm | - | 0 W/m² | - |
* Rain latest hour (hover to see other rain measurements)
** Current wind speed in m/s (hover to see current wind gust speed)